FENGYUN 1C DEB, 35245

Orbit data source: Space-Track

FENGYUN 1C DEB, 35245 is space debris in SSO originally from a launch on Mon, 10 May 1999 UTC launched from the Taiyaun Space Center, China (TSC). Fengyun 1C debris stems from the Chinese weather satellite Fengyun-1C, which was intentionally destroyed by a Chinese anti-satellite missile in 2007. This event dramatically increased the amount of space debris, with thousands of trackable fragments posing hazards to satellites and human spaceflight. The Fengyun 1C debris cloud has become a focal point in discussions about space sustainability and the need for international regulations to prevent the creation of new debris.

Loading next visibility...
Identifier
35245, 1999-025DRD
Orbit
SSO
Country
Flag of CNCN / PRC
Related business
Manufacturer
Unknown
Mission
Spacecraft
Bus & Motor
Unknown
Mass
Unknown
Launch date (UTC)
1999-05-10 (27 years ago)
Launch vehicle
Unknown
Launch site
Taiyaun Space Center, China (TSC)
Object type
Payload
Rocket body
Debris
Shape & HBR
Unknown shape, 0.1 m
Radar Cross Section
Medium (>0.1 m² and <1 m²)

Expand to show TLE details & history
Last TLE update: 11 hours ago

TLE from 11 hours ago
0 FENGYUN 1C DEB
1 35245U 99025DRD 26265.50111292  .00001809  00000-0  94864-3 0  9998
2 35245  99.0795   0.4673 0059436 190.0432 234.9239 14.14618294917870
Epoch: 2026-09-22T12:01Z
TLE epoch observation values (Epoch: 2026-09-22T12:01:36.156Z)
Latitude
63.04364°
Longitude
160.48623°
Altitude
879.238 km
Speed
7.406 km/s
True Right ascension
22h 49m 00s
True Declination
62° 54' 24"
Sunlit
Object was in daylight at epoch
Visualization orbit readout
Latitude
Unknown
Longitude
Unknown
Altitude
Unknown
Speed
Unknown
Apparent Right ascension
Unknown
Apparent Declination
Unknown
Sunlit
N/A
Visualization observer readout
Local Sidereal Time
15:48:05
Azimuth
Unknown
Elevation
Unknown
Doppler factor
Unknown
Orbital elements
Apogee altitude
883.701 km
Perigee altitude
797.888 km
Semi-major axis
7,218.932 km
Eccentricity
0.00594
Inclination
99.0795°
RAAN
0.4673°
Arg. of periapsis
190.0432°
True anomaly
234.36888°
Mean anomaly
234.9239°
Eccentric anomaly
234.64615°
Mean motion
3.53862 °/min
Orbital period
101.73 mins
BSTAR
0.00094864
Loading maneuver chart data...
Computing Atmospheric mass density...

Documentation

Showing up to 5 results
|